This is the latest recevied weather packets stored in our database for station/object KG7QQL. If no packets are shown the sender has not sent any weather packets the latest 10 day(s).
| Time | Temp. | Humidity | Pressure | Rain* | Wind** | Luminosity | Snow |
|---|---|---|---|---|---|---|---|
| 1777156002 | 17.78° C | 27% | - | 0 mm | - | - | - |
| 1777155698 | 17.78° C | 28% | - | 0 mm | - | - | - |
| 1777155394 | 17.78° C | 29% | - | 0 mm | - | - | - |
| 1777155091 | 17.78° C | 28% | - | 0 mm | - | - | - |
| 1777154788 | 18.33° C | 30% | - | 0 mm | - | - | - |
| 1777154485 | 17.22° C | 28% | - | 0 mm | - | - | - |
| 1777154180 | 18.33° C | 29% | - | 0 mm | - | - | - |
| 1777153876 | 17.78° C | 29% | - | 0 mm | - | - | - |
| 1777153568 | 17.78° C | 30% | - | 0 mm | - | - | - |
| 1777153263 | 17.78° C | 31% | - | 0 mm | - | - | - |
| 1777152960 | 17.78° C | 31% | - | 0 mm | - | - | - |
| 1777152656 | 17.78° C | 31% | - | 0 mm | - | - | - |
| 1777152354 | 17.22° C | 37% | - | 0 mm | - | - | - |
| 1777152048 | 16.67° C | 38% | - | 0 mm | - | - | - |
| 1777151744 | 17.22° C | 41% | - | 0 mm | - | - | - |
| 1777151441 | 17.22° C | 39% | - | 0 mm | - | - | - |
| 1777151137 | 16.67° C | 38% | - | 0 mm | - | - | - |
| 1777150831 | 16.67° C | 42% | - | 0 mm | - | - | - |
| 1777150526 | 15.56° C | 55% | - | 0 mm | - | - | - |
| 1777150222 | 15.56° C | 61% | - | 0 mm | - | - | - |
| 1777149920 | 16.11° C | 59% | - | 0 mm | - | - | - |
| 1777149616 | 16.11° C | 57% | - | 0 mm | - | - | - |
| 1777149313 | 15.56° C | 56% | - | 0 mm | - | - | - |
| 1777149008 | 15.56° C | 59% | - | 0 mm | - | - | - |
| 1777148703 | 15.56° C | 59% | - | 0 mm | - | - | - |
* Rain latest hour (hover to see other rain measurements)
** Current wind speed in m/s (hover to see current wind gust speed)